Tracking 25995 objects as of 19-Aug-2022
HD Live streaming from Space Station
objects crossing your sky now

THOR ABLESTAR DEB

Track THOR ABLESTAR DEB now!
10-day predictions


NORAD ID: 652
Int'l Code: 1961-015HD
Perigee: 800.4 km
Apogee: 930.7 km
Inclination: 66.7 °
Period: 102.1 minutes
Semi major axis: 7236 km
RCS: 0.0233 m2 (small)
Launch date: June 29, 1961
Source: United States (US)
Launch site: AIR FORCE EASTERN TEST RANGE (AFETR)

Note: This is SATELLITE DEBRIS
aabbcc
Your satellite tracking list
Your tracking list is empty




NASA's NSSDC Master Catalog

Two Line Element Set (TLE):
1 00652U 61015HD  22230.92963496  .00000923  00000-0  54495-3 0  9997
2 00652  66.6945  71.5240 0090066 262.5982  96.4864 14.10275345 96122
Source of the keplerian elements: AFSPC